Location: ?ejkovice
(49.0137°N, 14.3821°E)
Time: 17:00:57
(UTC+00:00)

Cosmos 1953 - Pass Details

Date: 23 May 2024
Orbit: 510 x 530 km, 82.5° (Epoch: 12 June)

Event Time Altitude Azimuth Distance (km) Brightness Sun altitude
Rises 00:58:15 0° 343° (NNW) 2,685 6.5 -15.5°
Reaches altitude 10° 01:00:32 10° 334° (NNW) 1,787 5.4 -15.3°
Maximum altitude 01:04:07 35° 268° (W) 863 3.0 -15.0°
Enters shadow 01:05:28 27° 227° (SW) 1,041 3.2 -14.9°
